| time (UTC) | temp F | wind direction | speed knots | gust knots | rain 1hr in | rain 24hr in | rain mn in | humidity % | barometer mb |
| 20260502233033 | 75 | 0 | 0.0 | 0.0 | 0.00 | 0.00 | 0.00 | 29 | 1018.3 |
| 20260502231540 | 75 | 0 | 0.0 | 0.9 | 0.00 | 0.00 | 0.00 | 30 | 1018.3 |
| 20260502230035 | 77 | 0 | 0.0 | 0.0 | 0.00 | 0.00 | 0.00 | 28 | 1018.4 |
| 20260502224532 | 78 | 109 | 0.0 | 1.7 | 0.00 | 0.00 | 0.00 | 24 | 1018.4 |
| 20260502223038 | 79 | 0 | 0.0 | 1.7 | 0.00 | 0.00 | 0.00 | 21 | 1018.5 |
| 20260502221536 | 78 | 0 | 0.0 | 3.5 | 0.00 | 0.00 | 0.00 | 25 | 1018.6 |
| 20260502220041 | 79 | 170 | 0.0 | 1.7 | 0.00 | 0.00 | 0.00 | 23 | 1018.7 |
| 20260502214532 | 79 | 0 | 0.0 | 1.7 | 0.00 | 0.00 | 0.00 | 24 | 1018.8 |
| 20260502213032 | 78 | 0 | 0.0 | 2.6 | 0.00 | 0.00 | 0.00 | 23 | 1019.1 |
| 20260502211535 | 77 | 129 | 0.0 | 3.5 | 0.00 | 0.00 | 0.00 | 25 | 1019.3 |
| 20260502210033 | 78 | 161 | 0.0 | 1.7 | 0.00 | 0.00 | 0.00 | 25 | 1019.6 |
| 20260502204534 | 76 | 0 | 0.0 | 2.6 | 0.00 | 0.00 | 0.00 | 27 | 1019.8 |
| 20260502203031 | 78 | 174 | 0.0 | 1.7 | 0.00 | 0.00 | 0.00 | 24 | 1019.9 |
| 20260502201537 | 79 | 0 | 0.0 | 3.5 | 0.00 | 0.00 | 0.00 | 25 | 1020.2 |
| 20260502200036 | 77 | 0 | 0.0 | 1.7 | 0.00 | 0.00 | 0.00 | 26 | 1020.2 |
| 20260502194537 | 76 | 99 | 0.0 | 1.7 | 0.00 | 0.00 | 0.00 | 24 | 1020.3 |
| 20260502193047 | 76 | 160 | 0.9 | 3.5 | 0.00 | 0.00 | 0.00 | 23 | 1020.4 |
| 20260502191534 | 75 | 162 | 0.9 | 2.6 | 0.00 | 0.00 | 0.00 | 21 | 1020.6 |
| 20260502190039 | 75 | 226 | 0.9 | 3.5 | 0.00 | 0.00 | 0.00 | 21 | 1020.6 |
| 20260502184536 | 75 | 158 | 0.0 | 2.6 | 0.00 | 0.00 | 0.00 | 22 | 1020.8 |
| 20260502183035 | 75 | 193 | 0.0 | 2.6 | 0.00 | 0.00 | 0.00 | 22 | 1021.1 |
| 20260502181532 | 73 | 0 | 0.0 | 2.6 | 0.00 | 0.00 | 0.00 | 23 | 1021.3 |
| 20260502163041 | 70 | 150 | 0.0 | 2.6 | 0.00 | 0.00 | 0.00 | 32 | 1022.2 |
| 20260502161553 | 68 | 179 | 0.9 | 2.6 | 0.00 | 0.00 | 0.00 | 33 | 1022.2 |
| 20260502151534 | 63 | 0 | 0.0 | 0.0 | 0.00 | 0.00 | 0.00 | 60 | 1021.8 |
| 20260502123106 | 49 | 0 | 0.0 | 0.0 | 0.00 | 0.00 | 0.00 | 85 | 1020.5 |
| 20260502121533 | 48 | 0 | 0.0 | 0.0 | 0.00 | 0.00 | 0.00 | 84 | 1020.2 |
| 20260502114539 | 48 | 0 | 0.0 | 0.0 | 0.00 | 0.00 | 0.00 | 82 | 1019.9 |
| 20260502113034 | 48 | 0 | 0.0 | 0.0 | 0.00 | 0.00 | 0.00 | 81 | 1019.8 |
| 20260502111533 | 49 | 0 | 0.0 | 0.0 | 0.00 | 0.00 | 0.00 | 81 | 1019.5 |
| 20260502110044 | 49 | 0 | 0.0 | 0.0 | 0.00 | 0.00 | 0.00 | 81 | 1019.4 |
| 20260502104538 | 49 | 0 | 0.0 | 0.0 | 0.00 | 0.00 | 0.00 | 81 | 1019.2 |
| 20260502103038 | 49 | 0 | 0.0 | 0.0 | 0.00 | 0.00 | 0.00 | 81 | 1019.1 |
| 20260502101545 | 49 | 0 | 0.0 | 0.0 | 0.00 | 0.00 | 0.00 | 80 | 1019.3 |
| 20260502070036 | 51 | 0 | 0.0 | 0.0 | 0.00 | 0.00 | 0.00 | 70 | 1019.1 |
| 20260502064535 | 51 | 0 | 0.0 | 0.0 | 0.00 | 0.00 | 0.00 | 70 | 1019.1 |
| 20260502063046 | 52 | 0 | 0.0 | 0.0 | 0.00 | 0.00 | 0.00 | 70 | 1019.2 |
| 20260502061538 | 52 | 0 | 0.0 | 0.0 | 0.00 | 0.00 | 0.00 | 70 | 1019.1 |
| 20260502060034 | 52 | 0 | 0.0 | 0.0 | 0.00 | 0.00 | 0.00 | 70 | 1019.0 |
| 20260502054538 | 52 | 0 | 0.0 | 0.0 | 0.00 | 0.00 | 0.00 | 68 | 1018.9 |
| 20260502053040 | 53 | 0 | 0.0 | 0.0 | 0.00 | 0.00 | 0.00 | 68 | 1018.8 |
| 20260502051536 | 53 | 0 | 0.0 | 0.0 | 0.00 | 0.00 | 0.00 | 67 | 1018.9 |
| 20260502050037 | 54 | 0 | 0.0 | 0.0 | 0.00 | 0.00 | 0.00 | 66 | 1018.9 |
| 20260502044537 | 55 | 0 | 0.0 | 0.0 | 0.00 | 0.00 | 0.00 | 66 | 1019.0 |
| 20260502043038 | 55 | 0 | 0.0 | 0.0 | 0.00 | 0.00 | 0.00 | 65 | 1018.9 |
| 20260502041537 | 56 | 0 | 0.0 | 0.0 | 0.00 | 0.00 | 0.00 | 66 | 1018.9 |
| 20260502040036 | 56 | 0 | 0.0 | 0.0 | 0.00 | 0.00 | 0.00 | 65 | 1018.8 |
| 20260502034532 | 56 | 0 | 0.0 | 0.0 | 0.00 | 0.00 | 0.00 | 65 | 1018.8 |
| 20260502033039 | 57 | 0 | 0.0 | 0.0 | 0.00 | 0.00 | 0.00 | 64 | 1018.6 |
| 20260502031533 | 57 | 0 | 0.0 | 0.0 | 0.00 | 0.00 | 0.00 | 62 | 1018.7 |
| 20260502030033 | 58 | 0 | 0.0 | 0.0 | 0.00 | 0.00 | 0.00 | 61 | 1018.6 |
| 20260502024536 | 59 | 0 | 0.0 | 0.0 | 0.00 | 0.00 | 0.00 | 61 | 1018.3 |
| 20260502023036 | 59 | 0 | 0.0 | 0.0 | 0.00 | 0.00 | 0.00 | 63 | 1018.0 |
| 20260502021532 | 59 | 0 | 0.0 | 0.0 | 0.00 | 0.00 | 0.00 | 63 | 1018.0 |
| 20260502020035 | 59 | 0 | 0.0 | 0.0 | 0.00 | 0.00 | 0.00 | 64 | 1017.8 |
| 20260502014535 | 59 | 0 | 0.0 | 0.0 | 0.00 | 0.00 | 0.00 | 62 | 1017.3 |
| 20260502013033 | 60 | 0 | 0.0 | 0.0 | 0.00 | 0.00 | 0.00 | 60 | 1017.0 |
| 20260502011536 | 60 | 0 | 0.0 | 0.0 | 0.00 | 0.00 | 0.00 | 59 | 1016.5 |
| 20260502010047 | 61 | 0 | 0.0 | 0.0 | 0.00 | 0.00 | 0.00 | 58 | 1016.3 |
| 20260502004547 | 62 | 0 | 0.0 | 0.0 | 0.00 | 0.00 | 0.00 | 59 | 1016.0 |
| 20260502003046 | 62 | 0 | 0.0 | 0.0 | 0.00 | 0.00 | 0.00 | 56 | 1015.9 |
| 20260502001538 | 63 | 0 | 0.0 | 0.0 | 0.00 | 0.00 | 0.00 | 54 | 1015.8 |
| 20260502000037 | 64 | 0 | 0.0 | 0.0 | 0.00 | 0.00 | 0.00 | 52 | 1015.6 |
| 20260501234532 | 65 | 0 | 0.0 | 0.0 | 0.00 | 0.00 | 0.00 | 50 | 1015.4 |